KG5APU Weather Reports


Display with metric or nautical units.
time (UTC)temp
F
wind
direction
speed
MPH
gust
MPH
rain 1hr
in
rain 24hr
in
rain mn
in
humidity
%
barometer
mb
20220522003951 65 271 5.0 7.0 0.00 0.00 0.00 80 1017.5
20220522002951 65 220 4.0 6.0 0.00 0.00 0.00 80 1017.3
20220522001950 66 265 6.0 11.0 0.00 0.00 0.00 80 1017.2
20220522000949 66 154 2.0 3.0 0.00 0.00 0.00 79 1016.8
20220521235949 68 302 5.0 9.0 0.00 0.00 0.00 77 1016.6
20220521234948 68 5 6.0 8.0 0.00 0.00 0.00 77 1016.6
20220521233948 69 9 4.0 5.0 0.00 0.00 0.00 76 1016.7
20220521232948 70 28 5.0 11.0 0.00 0.00 0.00 75 1016.4
20220521231946 72 24 10.0 14.0 0.00 0.00 0.00 72 1015.7
20220521230946 73 68 6.0 7.0 0.00 0.00 0.00 72 1015.7
20220521225946 75 62 5.0 8.0 0.00 0.00 0.00 70 1015.4
20220521224945 75 7 7.0 10.0 0.00 0.00 0.00 70 1014.7
20220521223945 76 23 7.0 8.0 0.00 0.00 0.00 70 1014.5
20220521222944 77 354 5.0 7.0 0.00 0.00 0.00 69 1014.4
20220521221942 78 31 5.0 9.0 0.00 0.00 0.00 68 1014.3
20220521220941 79 40 6.0 8.0 0.00 0.00 0.00 67 1014.0
20220521215941 81 351 9.0 13.0 0.00 0.00 0.00 67 1014.2
20220521214940 83 257 5.0 6.0 0.00 0.00 0.00 66 1014.2
20220521213939 83 300 6.0 9.0 0.00 0.00 0.00 67 1014.1
20220521212938 84 289 6.0 8.0 0.00 0.00 0.00 67 1014.0
20220521211936 85 79 5.0 7.0 0.00 0.00 0.00 67 1013.8
20220521210936 86 15 3.0 3.0 0.00 0.00 0.00 66 1013.7
20220521205934 89 259 5.0 7.0 0.00 0.00 0.00 65 1013.8
20220521204933 90 128 3.0 3.0 0.00 0.00 0.00 58 1013.5
20220521203933 90 130 3.0 6.0 0.00 0.00 0.00 57 1013.5
20220521202933 91 173 5.0 7.0 0.00 0.00 0.00 55 1013.5
20220521201933 90 184 3.0 3.0 0.00 0.00 0.00 57 1013.7
20220521200934 91 159 4.0 5.0 0.00 0.00 0.00 55 1013.6
20220521195933 90 206 2.0 3.0 0.00 0.00 0.00 56 1013.6
20220521194932 91 99 7.0 8.0 0.00 0.00 0.00 56 1013.7
20220521193932 90 117 4.0 6.0 0.00 0.00 0.00 57 1013.9
20220521192932 91 156 5.0 7.0 0.00 0.00 0.00 57 1013.6
20220521191931 89 157 3.0 5.0 0.00 0.00 0.00 60 1013.8
20220521190932 89 178 2.0 2.0 0.00 0.00 0.00 60 1013.6
20220521185931 89 123 4.0 6.0 0.00 0.00 0.00 60 1013.6
20220521184930 89 142 3.0 6.0 0.00 0.00 0.00 60 1013.4
20220521183930 88 208 2.0 5.0 0.00 0.00 0.00 61 1013.3
20220521182930 88 155 2.0 2.0 0.00 0.00 0.00 61 1013.4
20220521181929 88 171 3.0 3.0 0.00 0.00 0.00 61 1013.4
20220521180927 88 160 2.0 2.0 0.00 0.00 0.00 64 1013.6
20220521175927 88 182 2.0 2.0 0.00 0.00 0.00 62 1013.7
20220521174927 88 172 1.0 1.0 0.00 0.00 0.00 62 1013.7
20220521173926 87 101 3.0 3.0 0.00 0.00 0.00 63 1013.8
20220521172925 88 137 3.0 5.0 0.00 0.00 0.00 64 1013.9
20220521171924 87 193 3.0 5.0 0.00 0.00 0.00 64 1013.6
20220521164334 85 180 2.0 2.0 0.00 0.00 0.00 72 1013.2
20220521163333 85 180 2.0 2.0 0.00 0.00 0.00 72 1013.2
20220521162333 86 184 3.0 3.0 0.00 0.00 0.00 71 1013.4
20220521161331 85 221 5.0 6.0 0.00 0.00 0.00 70 1013.3
20220521160329 83 144 2.0 2.0 0.00 0.00 0.00 72 1013.4
20220521155329 83 185 3.0 5.0 0.00 0.00 0.00 74 1013.2
20220521154328 84 195 4.0 6.0 0.00 0.00 0.00 71 1013.4
20220521153327 83 190 1.0 1.0 0.00 0.00 0.00 73 1013.2
20220521141808 78 211 2.0 2.0 0.00 0.00 0.00 86 1013.2
20220521140808 78 211 2.0 2.0 0.00 0.00 0.00 86 1013.2
20220521135806 78 229 4.0 5.0 0.00 0.00 0.00 86 1012.9
20220521134806 78 195 3.0 3.0 0.00 0.00 0.00 86 1012.4
20220521133806 78 165 3.0 5.0 0.00 0.00 0.00 87 1011.6
20220521132805 78 174 4.0 5.0 0.00 0.00 0.00 87 1011.5
20220521131804 78 171 2.0 2.0 0.00 0.00 0.00 86 1011.0
20220521130804 78 193 5.0 7.0 0.00 0.00 0.00 87 1010.4
20220521125803 78 200 4.0 6.0 0.00 0.00 0.00 88 1010.8
20220521124803 77 176 4.0 6.0 0.00 0.00 0.00 88 1010.7
20220521123802 77 167 3.0 5.0 0.00 0.00 0.00 89 1010.5
20220521122803 77 172 4.0 5.0 0.00 0.00 0.00 89 1010.3
20220521121802 77 202 4.0 6.0 0.00 0.00 0.00 89 1010.4
20220521120802 76 286 4.0 5.0 0.00 0.00 0.00 90 1010.0
20220521115802 76 216 2.0 3.0 0.00 0.00 0.00 90 1010.2
20220521114802 76 160 5.0 6.0 0.00 0.00 0.00 90 1009.7
20220521113803 76 130 3.0 5.0 0.00 0.00 0.00 90 1009.5
20220521112801 76 156 5.0 7.0 0.00 0.00 0.00 89 1009.4
20220521111800 76 186 8.0 10.0 0.00 0.00 0.00 89 1009.0
20220521110800 77 197 5.0 8.0 0.00 0.00 0.00 88 1009.3
20220521105800 77 187 4.0 7.0 0.00 0.00 0.00 88 1009.0
20220521104759 77 103 2.0 2.0 0.00 0.00 0.00 88 1009.1
20220521103759 77 166 7.0 9.0 0.00 0.00 0.00 87 1009.2
20220521102759 77 160 6.0 8.0 0.00 0.00 0.00 87 1009.0
20220521101759 77 180 3.0 8.0 0.00 0.00 0.00 86 1009.0
20220521100758 77 151 4.0 7.0 0.00 0.00 0.00 87 1009.2
20220521095757 77 202 3.0 6.0 0.00 0.00 0.00 87 1009.1
20220521094757 77 115 3.0 6.0 0.00 0.00 0.00 86 1008.8
20220521093757 77 194 4.0 5.0 0.00 0.00 0.00 86 1008.8
20220521092757 77 135 3.0 3.0 0.00 0.00 0.00 86 1008.8
20220521091756 77 122 3.0 3.0 0.00 0.00 0.00 86 1008.5
20220521090755 77 128 4.0 6.0 0.00 0.00 0.00 86 1008.6
20220521085754 77 140 4.0 5.0 0.00 0.00 0.00 85 1008.3
20220521084754 77 160 3.0 5.0 0.00 0.00 0.00 85 1008.7
20220521083752 77 145 2.0 3.0 0.00 0.00 0.00 85 1008.6
20220521082752 78 111 3.0 3.0 0.00 0.00 0.00 84 1008.4
20220521081750 78 109 5.0 6.0 0.00 0.00 0.00 83 1008.5
20220521080749 78 131 3.0 5.0 0.00 0.00 0.00 83 1008.6
20220521075749 78 188 5.0 8.0 0.00 0.00 0.00 83 1008.3
20220521074750 78 126 3.0 7.0 0.00 0.00 0.00 82 1008.3
20220521073749 78 140 5.0 7.0 0.00 0.00 0.00 81 1008.4
20220521072749 78 200 3.0 5.0 0.00 0.00 0.00 82 1008.6
20220521071747 78 110 7.0 10.0 0.00 0.00 0.00 81 1008.1
20220521070746 78 193 5.0 6.0 0.00 0.00 0.00 81 1008.0
20220521065746 78 181 4.0 6.0 0.00 0.00 0.00 81 1007.9
20220521064746 79 180 9.0 11.0 0.00 0.00 0.00 80 1008.0
20220521063745 79 167 7.0 11.0 0.00 0.00 0.00 80 1007.9
20220521062745 79 171 6.0 9.0 0.00 0.00 0.00 79 1007.6
20220521061745 79 174 7.0 10.0 0.00 0.00 0.00 78 1007.6
20220521060745 79 189 4.0 6.0 0.00 0.00 0.00 79 1007.8
20220521055744 79 140 8.0 10.0 0.00 0.00 0.00 79 1007.8
20220521054743 80 160 6.0 7.0 0.00 0.00 0.00 78 1007.7
20220521053741 80 142 5.0 14.0 0.00 0.00 0.00 78 1007.8
20220521052741 80 202 7.0 11.0 0.00 0.00 0.00 77 1007.7
20220521051740 80 121 4.0 6.0 0.00 0.00 0.00 75 1007.4
20220521050740 80 148 5.0 7.0 0.00 0.00 0.00 74 1007.6
20220521045739 81 169 4.0 5.0 0.00 0.00 0.00 72 1007.4
20220521044739 81 154 5.0 9.0 0.00 0.00 0.00 70 1007.5
20220521043740 82 192 3.0 5.0 0.00 0.00 0.00 69 1007.5
20220521042738 82 165 5.0 6.0 0.00 0.00 0.00 68 1007.6
20220521041739 82 151 5.0 7.0 0.00 0.00 0.00 67 1007.5
20220521040737 82 87 2.0 2.0 0.00 0.00 0.00 67 1007.1
20220521035736 82 144 6.0 8.0 0.00 0.00 0.00 66 1007.1
20220521034735 82 159 5.0 7.0 0.00 0.00 0.00 67 1006.9
20220521033735 83 164 4.0 6.0 0.00 0.00 0.00 66 1006.5
20220521032734 83 131 4.0 6.0 0.00 0.00 0.00 66 1006.7
20220521031734 83 160 5.0 7.0 0.00 0.00 0.00 65 1006.3
20220521030733 83 167 5.0 8.0 0.00 0.00 0.00 64 1006.1
20220521025731 83 115 2.0 3.0 0.00 0.00 0.00 63 1006.2
20220521024731 84 156 3.0 5.0 0.00 0.00 0.00 62 1006.0
20220521023729 84 169 4.0 7.0 0.00 0.00 0.00 60 1005.9
20220521022730 85 155 4.0 8.0 0.00 0.00 0.00 59 1005.9
20220521021729 85 148 6.0 8.0 0.00 0.00 0.00 59 1005.8
20220521020728 86 187 6.0 7.0 0.00 0.00 0.00 58 1005.8
20220521015728 86 212 3.0 5.0 0.00 0.00 0.00 59 1005.7
20220521014728 86 85 5.0 7.0 0.00 0.00 0.00 59 1005.6
20220521013728 86 143 11.0 18.0 0.00 0.00 0.00 59 1005.4
20220521012726 86 158 3.0 6.0 0.00 0.00 0.00 61 1005.6
20220521011725 87 213 6.0 8.0 0.00 0.00 0.00 60 1005.3